Forside
METAR-TAF:

METAR-TAF

Lufthavne :

Volk Field Air National Guard Base

Camp Douglas, Wisconsin, USA

Breddekreds: 43-56N, længdekreds: 090-16W, højde: 277 m

Aktuelle vejr

Denne rapport blev lavet for 1 time og 0 minutter siden, kl. 06:56 UTC
Vind 5 kt fra sydvest
Temperatur 4°C
Fugtighed 87%
Tryk 1012 hPa
Sigt: 16.1 km
skyfri

METAR: KVOK 290656Z AUTO 23005KT 10SM CLR 04/02 A2987 RMK AO2 SLP123 T00390021

Tid: 01:56 (07:56 UTC)


TAF: fraværende

Vejrobservationer og prognoser fra mere end 4000 lufthavne (METAR og TAF).

De gule og røde prikker repræsenterer de meteorologiske stationer.

Flyt musen over at se navnet på stationen.

Så klik over at se vejr observationer og prognoser.

At skifte det kort: Klik på de grønne knapper med et sort kors for at zoome ind; på den grønne knap med en bindestreg for at zoome ud; eller på de grønne pile for tilstødende kort.


METAR-TAF: